Tracking 29892 objects as of 21-Nov-2024
HD Live streaming from Space Station
objects crossing your sky now

STARLINK-3088

Track STARLINK-3088 now!
10-day predictions
STARLINK-3088 is classified as:


NORAD ID: 49163
Int'l Code: 2021-082AK
Perigee: 577.2 km
Apogee: 581.2 km
Inclination: 70.0 °
Period: 96.1 minutes
Semi major axis: 6950 km
RCS: Unknown
Launch date: September 14, 2021
Source: United States (US)
Launch site: AIR FORCE WESTERN TEST RANGE (AFWTR)
Your satellite tracking list
Your tracking list is empty




NASA's NSSDC Master Catalog

Two Line Element Set (TLE):
1 49163U 21082AK  24325.58441114  .00001463  00000-0  13035-3 0  9999
2 49163  69.9998  29.8429 0002861 269.6127  90.4704 14.98331687176625
Source of the keplerian elements: AFSPC